Location: Chiroubles
(46.1812°N, 4.6660°E)
Time: 10:49:50
(UTC+00:00)

N. Korean satellite - Pass Details

Date: 05 November 2020
Orbit: 453 x 503 km, 97.2° (Epoch: 03 December)

Event Time Altitude Azimuth Distance (km) Brightness Sun altitude
Rises 04:35:12 0° 24° (NNE) 2,478 10.4 -19.9°
Reaches altitude 10° 04:37:31 10° 38° (NE) 1,601 9.6 -19.5°
Maximum altitude 04:40:23 24° 95° (E) 977 8.9 -19.0°
Drops below altitude 10° 04:43:15 10° 152° (SSE) 1,600 9.6 -18.5°
Sets 04:45:32 0° 166° (SSE) 2,476 10.4 -18.1°
